Погода в Усть-Бурене

Россия / Республика Тыва     51°24′54″N   95°39′12″E
темп.,
°C
ветер,
м/с
пор.,
м/с
влажн.,
%
обл.,
%
осадки,
мм/ч
давл.,
гПа
погр.,
м
13 мая, чт
чт1301:00+5всв226187 0.0 101036
04:00+4всв226728 0.0 101128
07:00+8всв12507 0.0 1010227
10:00+13с232979 0.0 10081992
13:00+16ссв452276 0.0 10072845
16:00+16св452193 0.0 10062992
19:00+13с242947 0.0 1008301
22:00+6всв33539 0.0 101247
14 мая, пт
пт1401:00+4всв22555 0.0 101323
04:00+2в215891 0.0 101411
07:00+7юв1143100 0.0 1014187
10:00+13зюз2231100 0.0 10111143
13:00+15з3318100 0.0 10102059
16:00+16з2317100 0.0 10081931
19:00+13зюз113099 0.0 100813
22:00+7в114299 0.1 101111
15 мая, сб
сб1501:00+5ююз2381100 0.3 101582
04:00+4зюз2481100 1.6 1017198
07:00+4з139087 2.6 1021436
10:00+8сз135724 1.1 10211201
13:00+11з572628 1.5 10192695
16:00+12з562966 0.0 10192204
19:00+11з364019 0.0 10201484
22:00+5в21645 0.0 102413
16 мая, вс
вс1601:00+3в227311 0.0 102517
04:00+4в217077 0.0 102531
07:00+7в126070 0.0 1025193
10:00+14зюз233910 0.0 10211224
13:00+17з343585 0.0 10191776
16:00+18зсз353353 0.0 10162008
19:00+17сз23415 0.0 101592
22:00+10всв226023 0.0 101618
17 мая, пн
пн1701:00+9в216429 0.0 101613
04:00+7вюв117755 0.2 101611
07:00+11ююз1162100 0.2 1016164
10:00+17з3742100 0.0 10141527
13:00+18зсз4737100 0.0 10122331
16:00+19зсз4736100 0.0 10111876
19:00+14сз2763100 0.1 1013379
22:00+11св007797 0.1 101511